�N����,����,�~����,�C��,���x,�C��,����,���ϕ���,�ő�u�ԕ���,�ő厞����,���˗�,�I�_���x,�n�����x,�ő啗���N��,DTYPE
"22/08/20","00:10",0.0,23.9,85.0,999.1,290.4,1.0,1.7,315.3,0.00,21.3,25.7,"00:00:02",1
"22/08/20","00:20",0.0,23.9,85.0,998.9,292.3,1.0,1.7,268.4,0.00,21.3,25.5,"00:12:40",1
"22/08/20","00:30",0.0,23.9,85.1,998.9,312.6,0.8,1.2,314.5,0.00,21.3,25.6,"00:24:40",1
"22/08/20","00:40",0.0,24.1,85.6,998.9,335.3,1.1,1.3,336.8,0.00,21.6,25.4,"00:33:12",1
"22/08/20","00:50",0.0,23.8,86.2,998.9,330.0,1.1,1.6,351.3,0.00,21.4,25.6,"00:41:36",1
"22/08/20","01:00",0.0,23.7,86.7,998.6,306.2,0.8,1.4,319.0,0.00,21.4,25.4,"00:50:24",1
"22/08/20","01:10",0.0,23.7,86.8,998.9,290.9,0.8,1.4,281.3,0.00,21.4,25.6,"01:06:24",1
"22/08/20","01:20",0.0,23.7,86.9,998.6,290.8,0.5,0.9,321.0,0.00,21.4,25.4,"01:10:40",1
"22/08/20","01:30",0.0,23.6,87.2,998.9,300.1,1.0,1.3,328.1,0.00,21.4,25.3,"01:28:32",1
"22/08/20","01:40",0.0,23.8,87.4,998.6,333.3,1.1,1.3,353.0,0.00,21.6,25.5,"01:31:44",1
"22/08/20","01:50",0.0,23.8,87.8,998.9,332.9,1.1,1.3,338.7,0.00,21.7,25.3,"01:42:16",1
"22/08/20","02:00",0.0,23.5,88.1,998.4,337.6,0.8,1.4,346.9,0.00,21.5,25.5,"01:50:24",1
"22/08/20","02:10",0.0,23.5,88.4,998.9,278.3,0.6,0.9,265.1,0.00,21.5,25.2,"02:09:20",1
"22/08/20","02:20",0.0,23.4,88.6,998.6,296.6,0.8,1.3,313.2,0.00,21.4,25.3,"02:16:08",1
"22/08/20","02:30",0.0,23.5,88.9,998.4,326.4,0.8,1.3,343.8,0.00,21.6,25.2,"02:24:48",1
"22/08/20","02:40",0.0,23.5,88.9,998.4,301.5,0.2,0.6,269.2,0.00,21.6,25.3,"02:39:52",1
"22/08/20","02:50",0.0,23.4,89.1,998.6,291.4,0.8,1.2,321.5,0.00,21.5,25.3,"02:46:16",1
"22/08/20","03:00",0.0,23.4,89.2,998.6,316.2,0.8,1.0,331.6,0.00,21.6,25.2,"02:57:12",1
"22/08/20","03:10",0.0,23.5,89.4,998.9,334.4,1.2,1.8,346.4,0.00,21.7,25.2,"03:07:44",1
"22/08/20","03:20",0.0,23.4,89.7,998.4,329.3,1.0,1.6,334.5,0.00,21.7,25.4,"03:10:24",1
"22/08/20","03:30",0.0,23.4,89.9,998.6,293.0,0.8,1.4,341.4,0.00,21.7,25.2,"03:29:44",1
"22/08/20","03:40",0.0,23.4,90.0,998.6,303.0,1.0,1.6,313.7,0.00,21.7,25.3,"03:33:04",1
"22/08/20","03:50",0.0,23.4,90.0,998.6,286.5,0.7,0.9,315.5,0.00,21.7,25.3,"03:44:24",1
"22/08/20","04:00",0.0,23.5,90.0,998.6,293.0,0.7,1.1,315.0,0.00,21.8,25.2,"03:56:00",1
"22/08/20","04:10",0.0,23.5,90.0,998.9,290.0,0.6,0.9,276.8,0.00,21.8,25.2,"04:00:08",1
"22/08/20","04:20",0.0,23.6,89.9,998.4,313.0,1.0,1.7,328.8,0.00,21.9,25.2,"04:18:08",1
"22/08/20","04:30",0.0,23.8,90.0,998.4,338.6,1.1,1.6,328.3,0.00,22.1,25.2,"04:27:52",1
"22/08/20","04:40",0.0,23.5,90.1,998.4,310.4,1.0,1.3,332.0,0.00,21.8,25.1,"04:33:12",1
"22/08/20","04:50",0.0,23.5,90.3,998.6,282.8,0.7,1.1,261.5,0.00,21.9,25.2,"04:48:16",1
"22/08/20","05:00",0.0,23.5,90.3,998.6,297.0,0.8,1.1,276.5,0.00,21.9,25.2,"04:50:40",1
"22/08/20","05:10",0.0,23.5,90.2,998.9,305.5,1.0,1.3,321.9,0.00,21.8,25.2,"05:09:20",1
"22/08/20","05:20",0.0,23.6,90.2,998.6,298.7,0.8,1.2,312.0,0.00,21.9,25.1,"05:12:48",1
"22/08/20","05:30",0.0,23.7,90.1,998.9,313.9,0.7,1.2,320.5,0.00,22.0,25.0,"05:23:44",1
"22/08/20","05:40",0.0,23.6,90.2,998.6,324.2,1.0,1.4,332.2,0.00,21.9,25.1,"05:36:56",1
"22/08/20","05:50",0.0,23.8,90.3,998.9,340.6,0.8,1.3,342.4,0.00,22.2,25.0,"05:49:20",1
"22/08/20","06:00",0.0,23.7,90.4,998.9,332.7,0.8,1.3,343.6,0.00,22.1,25.2,"05:54:40",1
"22/08/20","06:10",0.0,23.6,90.5,998.9,302.1,0.8,1.7,320.3,0.00,22.0,25.1,"06:06:56",1
"22/08/20","06:20",0.0,23.7,90.6,998.9,305.3,0.8,1.1,316.3,0.00,22.1,25.1,"06:12:16",1
"22/08/20","06:30",0.0,23.7,90.7,998.9,314.2,0.7,1.2,317.5,0.00,22.1,25.1,"06:25:12",1
"22/08/20","06:40",0.0,23.9,90.7,998.9,333.8,0.6,1.0,337.8,0.01,22.3,25.1,"06:38:08",1
"22/08/20","06:50",0.0,24.1,90.7,999.1,330.6,1.0,1.4,316.9,0.01,22.5,25.1,"06:46:32",1
"22/08/20","07:00",0.0,24.2,90.7,999.1,292.6,0.5,1.0,324.8,0.01,22.6,25.0,"06:50:40",1
"22/08/20","07:10",0.0,24.4,90.7,998.9,292.6,0.7,1.3,325.5,0.04,22.8,25.0,"07:08:08",1
"22/08/20","07:20",0.0,24.5,90.4,999.3,314.5,1.1,1.6,330.6,0.03,22.9,25.1,"07:11:36",1
"22/08/20","07:30",0.0,24.9,90.1,999.3,320.1,0.8,1.1,320.9,0.03,23.2,25.0,"07:29:52",1
"22/08/20","07:40",0.0,25.3,89.8,999.3,310.1,0.6,1.1,339.9,0.04,23.5,25.1,"07:33:20",1
"22/08/20","07:50",0.0,25.5,89.6,999.3,292.7,0.6,1.0,312.6,0.05,23.7,25.1,"07:46:32",1
"22/08/20","08:00",0.0,25.6,88.6,999.3,312.0,0.8,1.3,321.3,0.06,23.6,24.9,"07:57:12",1
"22/08/20","08:10",0.0,25.8,87.8,998.9,301.0,0.8,1.4,313.3,0.07,23.7,25.1,"08:03:20",1
"22/08/20","08:20",0.0,26.0,86.3,998.9,297.2,0.7,1.3,320.3,0.06,23.6,25.2,"08:10:48",1
"22/08/20","08:30",0.0,26.3,84.7,998.9,334.0,1.0,2.0,343.8,0.07,23.6,25.0,"08:29:52",1
"22/08/20","08:40",0.0,26.7,83.5,999.1,335.1,0.7,1.9,342.5,0.07,23.7,25.1,"08:31:04",1
"22/08/20","08:50",0.0,27.1,82.3,998.9,303.1,0.3,0.8,321.2,0.11,23.9,25.2,"08:42:16",1
"22/08/20","09:00",0.0,27.7,80.8,998.9,165.1,0.3,1.0,123.8,0.19,24.1,25.1,"08:50:16",1
"22/08/20","09:10",0.0,28.6,77.8,998.4,166.1,0.3,1.1,143.8,0.24,24.4,25.1,"09:05:52",1
"22/08/20","09:20",0.0,28.6,75.2,998.4,345.3,0.6,1.6,341.7,0.09,23.8,25.1,"09:14:56",1
"22/08/20","09:30",0.0,28.1,74.7,998.2,10.9,0.6,1.2,2.8,0.07,23.2,25.1,"09:28:24",1
"22/08/20","09:40",0.0,28.1,75.0,997.9,354.5,0.6,1.1,334.3,0.08,23.3,25.2,"09:32:48",1
"22/08/20","09:50",0.0,28.1,76.1,997.7,330.1,1.0,1.6,335.3,0.09,23.5,25.1,"09:48:16",1
"22/08/20","10:00",0.0,28.0,76.8,997.9,322.7,0.8,1.6,346.3,0.11,23.6,25.0,"09:55:04",1
"22/08/20","10:10",0.0,28.1,76.5,997.7,351.4,0.7,1.8,349.1,0.14,23.6,25.2,"10:04:16",1
"22/08/20","10:20",0.0,28.6,75.6,998.2,348.6,0.8,1.7,353.9,0.16,23.9,25.1,"10:17:52",1
"22/08/20","10:30",0.0,28.8,75.0,997.7,344.6,0.8,1.7,345.1,0.15,24.0,25.2,"10:28:00",1
"22/08/20","10:40",0.0,28.9,74.4,998.2,335.5,0.7,1.6,348.2,0.18,23.9,25.3,"10:30:24",1
"22/08/20","10:50",0.0,29.1,74.6,998.2,334.5,0.8,1.7,336.3,0.17,24.2,25.2,"10:42:56",1
"22/08/20","11:00",0.0,29.0,74.5,997.9,329.0,0.8,1.7,337.0,0.15,24.0,25.3,"10:57:20",1
"22/08/20","11:10",0.0,29.3,74.8,998.4,327.0,0.7,1.6,337.3,0.16,24.4,25.3,"11:09:04",1
"22/08/20","11:20",0.0,29.6,74.4,998.4,349.2,0.7,1.6,359.1,0.14,24.6,25.3,"11:13:52",1
"22/08/20","11:30",0.0,29.8,74.5,997.9,355.7,0.7,1.2,16.9,0.14,24.8,25.2,"11:24:08",1
"22/08/20","11:40",0.0,30.1,74.1,998.4,340.1,0.6,1.6,328.2,0.20,25.0,25.4,"11:32:00",1
"22/08/20","11:50",0.0,30.4,73.0,998.2,67.2,0.3,1.2,354.0,0.18,25.1,25.3,"11:48:32",1
"22/08/20","12:00",0.0,30.8,72.7,998.2,357.3,0.2,1.0,1.5,0.14,25.4,25.4,"11:52:40",1
"22/08/20","12:10",0.0,30.7,73.0,998.4,135.3,0.1,0.8,49.7,0.08,25.3,25.4,"12:04:08",1
"22/08/20","12:20",0.0,30.2,73.6,998.4,246.3,0.3,0.8,307.2,0.03,25.0,25.3,"12:16:16",1
"22/08/20","12:30",0.0,30.1,74.5,997.9,1.1,0.3,1.1,357.9,0.10,25.1,25.6,"12:28:00",1
"22/08/20","12:40",0.0,30.3,74.9,997.9,345.3,0.6,1.1,356.3,0.08,25.4,25.4,"12:36:16",1
"22/08/20","12:50",0.0,30.3,75.1,998.2,337.5,0.6,1.3,324.3,0.11,25.4,25.5,"12:46:40",1
"22/08/20","13:00",0.0,30.3,75.5,998.2,342.7,0.8,1.4,359.3,0.12,25.5,25.6,"12:59:28",1
"22/08/20","13:10",0.0,30.8,75.7,997.7,333.4,0.8,1.9,352.4,0.16,26.0,25.5,"13:00:32",1
"22/08/20","13:20",0.0,30.9,75.2,997.7,345.8,0.8,1.8,351.0,0.14,26.0,25.6,"13:12:32",1
"22/08/20","13:30",0.0,30.8,75.1,997.4,349.0,0.8,1.8,345.0,0.11,25.9,25.6,"13:29:12",1
"22/08/20","13:40",0.0,31.0,75.2,997.7,347.8,0.6,1.8,5.0,0.12,26.1,25.5,"13:37:52",1
"22/08/20","13:50",0.0,30.9,75.0,997.4,312.9,1.1,2.8,345.9,0.11,26.0,25.8,"13:40:08",1
"22/08/20","14:00",0.0,30.9,75.0,997.2,316.9,0.7,1.8,343.6,0.16,26.0,25.7,"13:52:40",1
"22/08/20","14:10",0.0,31.0,74.1,997.7,277.8,0.7,2.0,237.6,0.14,25.9,25.6,"14:06:56",1
"22/08/20","14:20",0.0,31.0,73.8,997.4,233.4,1.5,4.2,247.7,0.16,25.8,25.8,"14:12:32",1
"22/08/20","14:30",0.0,31.3,73.1,997.4,273.8,1.0,2.5,336.2,0.20,25.9,25.9,"14:24:40",1
"22/08/20","14:40",0.0,31.4,72.6,997.4,304.5,1.2,4.1,353.8,0.22,25.9,25.7,"14:39:44",1
"22/08/20","14:50",0.0,31.8,72.1,997.4,328.5,1.3,3.1,351.8,0.27,26.2,25.7,"14:47:12",1
"22/08/20","15:00",0.0,32.3,71.0,997.4,323.2,1.1,2.2,314.5,0.32,26.4,25.6,"14:58:08",1
"22/08/20","15:10",0.0,33.0,69.4,997.9,215.1,1.6,3.7,192.3,0.43,26.7,26.0,"15:04:32",1
"22/08/20","15:20",0.0,32.9,67.9,997.7,220.9,0.8,2.8,236.6,0.20,26.2,25.9,"15:10:48",1
"22/08/20","15:30",0.0,32.6,68.0,997.4,253.0,0.7,2.1,289.9,0.18,26.0,25.8,"15:27:44",1
"22/08/20","15:40",0.0,32.5,67.7,997.4,297.1,0.8,3.1,346.5,0.20,25.8,25.9,"15:39:28",1
"22/08/20","15:50",0.0,32.6,68.0,997.2,299.8,1.2,3.2,232.0,0.27,26.0,26.0,"15:43:44",1
"22/08/20","16:00",0.0,32.3,68.3,997.0,322.6,1.2,3.3,348.9,0.16,25.7,26.0,"15:58:00",1
"22/08/20","16:10",0.0,32.0,69.4,997.0,329.2,1.3,3.6,348.5,0.12,25.7,26.0,"16:03:20",1
"22/08/20","16:20",0.0,31.7,69.2,996.5,265.0,1.0,3.6,239.9,0.11,25.4,26.1,"16:16:48",1
"22/08/20","16:30",0.0,31.9,69.5,996.7,283.4,1.0,2.7,237.6,0.09,25.7,26.2,"16:21:04",1
"22/08/20","16:40",0.0,31.6,70.3,996.5,339.7,1.2,2.5,312.7,0.06,25.6,25.9,"16:37:52",1
"22/08/20","16:50",0.0,31.4,71.7,996.3,289.8,0.5,1.7,235.1,0.04,25.7,26.1,"16:47:20",1
"22/08/20","17:00",0.0,31.2,72.4,996.3,284.4,0.3,1.0,249.0,0.03,25.7,26.0,"16:50:48",1
"22/08/20","17:10",0.0,31.1,73.3,996.0,284.6,0.5,1.1,355.5,0.03,25.8,26.0,"17:07:04",1
"22/08/20","17:20",0.0,30.8,74.1,995.8,291.9,0.7,1.9,349.1,0.01,25.7,26.2,"17:11:20",1
"22/08/20","17:30",0.0,30.6,74.3,995.8,306.9,0.7,2.0,351.3,0.00,25.5,26.0,"17:23:52",1
"22/08/20","17:40",0.0,30.5,76.3,996.0,348.1,0.8,1.8,344.1,0.00,25.9,26.0,"17:31:28",1
"22/08/20","17:50",0.0,30.0,78.3,995.8,338.1,0.8,1.4,328.0,0.00,25.8,26.1,"17:49:52",1
"22/08/20","18:00",0.0,29.7,79.8,995.8,336.4,0.8,1.7,334.0,0.00,25.9,26.2,"17:50:16",1
"22/08/20","18:10",0.4,29.4,81.4,995.6,336.0,1.0,1.7,322.2,0.00,25.9,26.3,"18:06:08",1
"22/08/20","18:20",0.2,28.8,83.1,996.0,352.9,0.8,1.9,337.6,0.00,25.7,26.2,"18:19:44",1
"22/08/20","18:30",1.2,27.6,85.0,996.3,352.1,1.8,4.5,352.8,0.00,24.9,26.2,"18:22:08",1
"22/08/20","18:40",0.8,26.8,86.5,996.7,309.6,1.2,3.1,342.1,0.00,24.4,26.4,"18:33:36",1
"22/08/20","18:50",2.2,26.8,87.7,997.0,301.5,1.1,3.7,307.9,0.00,24.6,26.2,"18:47:44",1
"22/08/20","19:00",2.2,26.6,88.6,996.7,320.8,1.0,2.6,347.3,0.00,24.6,26.4,"18:51:44",1
"22/08/20","19:10",0.8,26.5,89.3,997.0,324.9,1.0,2.0,331.2,0.00,24.6,26.1,"19:03:20",1
"22/08/20","19:20",0.8,26.3,90.0,996.7,349.3,0.8,2.1,15.6,0.00,24.6,26.2,"19:17:04",1
"22/08/20","19:30",0.0,25.9,90.5,997.0,4.5,1.2,2.0,346.4,0.00,24.3,26.3,"19:28:56",1
"22/08/20","19:40",0.0,25.7,91.0,997.0,350.1,1.7,3.1,340.8,0.00,24.2,26.2,"19:37:20",1
"22/08/20","19:50",0.0,25.5,91.3,997.0,338.9,1.6,3.6,1.3,0.00,24.0,26.2,"19:45:12",1
"22/08/20","20:00",0.0,25.3,91.4,997.0,347.9,1.6,4.1,339.9,0.00,23.8,26.2,"19:58:08",1
"22/08/20","20:10",0.0,25.3,91.7,997.2,337.8,1.3,2.7,337.5,0.00,23.9,26.2,"20:09:06",1
"22/08/20","20:20",0.0,25.3,91.8,997.0,323.8,0.8,2.1,320.4,0.00,23.9,26.1,"20:19:04",1
"22/08/20","20:30",0.0,25.3,91.9,997.0,358.5,0.5,1.2,354.6,0.00,23.9,26.2,"20:21:44",1
"22/08/20","20:40",0.0,25.2,92.0,997.2,24.5,0.5,1.2,358.5,0.00,23.8,26.2,"20:38:00",1
"22/08/20","20:50",0.0,25.2,92.2,997.2,349.0,1.0,2.2,343.1,0.00,23.9,26.3,"20:46:08",1
"22/08/20","21:00",0.0,25.1,92.5,997.4,339.7,1.3,2.7,348.9,0.00,23.8,26.1,"20:55:44",1
"22/08/20","21:10",0.0,25.2,92.6,997.7,347.3,1.0,2.0,343.2,0.00,24.0,26.1,"21:00:08",1
"22/08/20","21:20",0.0,25.0,92.7,997.7,336.3,0.6,1.4,334.1,0.00,23.8,26.2,"21:12:24",1
"22/08/20","21:30",0.0,25.0,92.9,997.4,325.7,0.5,1.6,342.8,0.00,23.8,26.1,"21:20:02",1
"22/08/20","21:40",0.0,25.0,93.0,997.9,334.0,1.0,1.6,342.5,0.00,23.8,26.1,"21:31:04",1
"22/08/20","21:50",0.0,24.9,93.1,997.7,326.2,0.6,1.4,343.3,0.00,23.7,26.2,"21:44:40",1
"22/08/20","22:00",0.0,24.9,93.2,997.7,280.8,0.3,0.8,264.4,0.00,23.8,26.1,"21:56:08",1
"22/08/20","22:10",0.0,24.9,93.4,998.2,310.3,0.8,1.3,308.1,0.00,23.8,26.0,"22:03:04",1
"22/08/20","22:20",0.0,24.9,93.5,997.9,274.0,0.7,1.2,322.3,0.00,23.8,26.0,"22:19:12",1
"22/08/20","22:30",0.0,24.9,93.6,997.9,316.4,0.8,1.4,311.0,0.00,23.8,26.1,"22:20:56",1
"22/08/20","22:40",0.0,24.9,93.7,998.2,300.6,0.8,1.4,326.4,0.00,23.9,26.2,"22:35:12",1
"22/08/20","22:50",0.0,24.9,93.9,998.4,303.8,0.8,2.1,313.2,0.00,23.9,25.9,"22:48:24",1
"22/08/20","23:00",0.0,24.9,94.0,998.6,339.0,1.1,1.8,327.3,0.00,23.9,26.0,"22:50:32",1
"22/08/20","23:10",0.0,24.9,94.1,998.6,340.9,0.8,1.4,342.3,0.00,23.9,25.9,"23:02:40",1
"22/08/20","23:20",0.0,24.8,94.2,998.2,338.9,1.0,1.8,353.2,0.00,23.8,25.9,"23:10:56",1
"22/08/20","23:30",0.0,24.9,94.3,998.6,331.4,1.1,1.9,337.7,0.00,24.0,26.1,"23:28:56",1
"22/08/20","23:40",0.0,24.8,94.4,998.4,320.4,1.1,2.4,335.0,0.00,23.9,25.9,"23:39:44",1
"22/08/20","23:50",0.0,24.8,94.5,997.9,319.2,1.3,2.2,329.0,0.00,23.9,26.1,"23:40:24",1
"22/08/20","24:00",0.0,24.8,94.6,997.9,328.3,1.6,2.6,345.5,0.00,23.9,25.9,"23:57:52",1
